Powrót do katalogu

STARLINK-35219

AktywnyŁącznośćVLEO
NORAD 66443·PAYLOAD·🇺🇸 United States

Wystrzelony Nov 11, 2025 z Cape Canaveral Space Force Station

Loading…

Następne Przeloty (najbliższe 24 godziny)

TLE

ŚwieżeSource: CelesTrak SupGP

Epoka: Sep 14, 2026, 23:12 UTC

1 66443C 25259X   26257.96715278  .00034177  00000+0  12380-2 0  2577
2 66443  42.9998 285.7941 0001572 262.9356 121.1184 15.27558112    16

Śledź STARLINK-35219 w czasie rzeczywistym z AllMySat

Download on the App Store